Tracking 35275 objects as of 9-Sep-2026
HD Live streaming from Space Station
objects crossing your sky now

STARLINK-1656

Track STARLINK-1656 now!
10-day predictions
STARLINK-1656 is classified as:


NORAD ID: 46353
Int'l Code: 2020-062AE
Launch date: September 3, 2020
Source: United States (US)
Launch site: AIR FORCE EASTERN TEST RANGE (AFETR)
Your satellite tracking list
Your tracking list is empty




NASA's NSSDC Master Catalog

Two Line Element Set (TLE):
1 46353U 20062AE  26252.22292446  .00933935  50404-3  10191-2 0  9991
2 46353  53.0286 169.3013 0000798 292.4673  67.6276 16.09284102333418
Source of the keplerian elements: AFSPC